User: anonymous   Login
Location: Saint Peter Port
(49.4500°N, 2.5330°W)
Time: 02:00:34
(UTC+00:00)
Language:

Cosmos 2242 Rocket - Orbit

View from above orbital plane
View from above orbital plane
View from above satellite
View from above satellite

Ground track
Ground track

The orbit data is extracted from the following two-line orbital elements,

1 22627U 93024B   17081.84556083 +.00000024 +00000-0 +19913-6 0  9998
2 22627 082.5251 180.3078 0022081 251.8553 247.9752 14.78069601289392
Epoch (UTC): 22 March 2017 20:17:36
Eccentricity: 0.0022081
inclination: 82.5251°
perigee height: 620 km
apogee height: 651 km
right ascension of ascending node: 180.3078°
argument of perigee: 251.8553°
revolutions per day: 14.78069601
mean anomaly at epoch: 247.9752°
orbit number at epoch: 28939

The dashed part of the orbit path shows where the satellite is in the earth's shadow,  

DLR